Key West, FL

5:22 AM EST on December 09, 2016 (GMT -0500)
Key West Naval Air Station

Weather History for KNQX - October, 2013

Change the Weather History Date:

Wednesday, October 23, 2013

  Actual Average Record
Temperature  
Mean Temperature 84 °F -  
Max Temperature 89 °F 83 °F 90 °F (2007)
Min Temperature 80 °F 74 °F 68 °F (1961)
Cooling Degree Days 20    
Growing Degree Days 34 (Base 50)    
Moisture  
Dew Point 74 °F    
Average Humidity 75    
Maximum Humidity 87    
Minimum Humidity 58    
Precipitation  
Precipitation 0.05 in - - ()
Sea Level Pressure  
Sea Level Pressure 29.88 in    
Wind  
Wind Speed 6 mph (WNW)    
Max Wind Speed 12 mph    
Max Gust Speed -    
Visibility 10 miles    
Events Thunderstorm    
Averages and records for this station are not official NWS values.
T = Trace of Precipitation, MM = Missing Value Source: NWS Daily Summary

Daily Weather History Graph

Daily Weather History Graph

Search for Another Location

Airport or City:

Trip Planner

Search our weather history database for the weather conditions in past years. The results will help you decide how hot, cold, wet, or windy it might be!

Date:

Astronomy

Oct. 23, 2013 Rise Set
Actual Time 7:28 AM EDT 6:52 PM EDT
Civil Twilight 7:05 AM EDT 7:16 PM EDT
Nautical Twilight 6:38 AM EDT 7:42 PM EDT
Astronomical Twilight 6:12 AM EDT 8:09 PM EDT
Moon 10:37 PM EDT (10/23) 11:29 AM EDT (10/23)
Length of Visible Light 12h 10m
Length of Day
11h 24m
Waning Gibbous, 79% of the Moon is Illuminated
Oct 23
Waning Gibbous
Oct 26
Last Quarter
Nov 3
New
Nov 10
First Quarter
Nov 17
Full

Hourly Weather History & Observations

Time (EDT) Temp. Heat Index Dew Point Humidity Pressure Visibility Wind Dir Wind Speed Gust Speed Precip Events Conditions
12:53 AM 80.1 °F 85.4 °F 75.9 °F 87% 29.89 in 10.0 mi South 4.6 mph - N/A   Clear
1:53 AM 81.0 °F 87.3 °F 75.9 °F 85% 29.88 in 10.0 mi SSW 4.6 mph - N/A   Clear
2:53 AM 81.0 °F 86.7 °F 75.0 °F 82% 29.86 in 10.0 mi SSW 5.8 mph - N/A   Partly Cloudy
3:28 AM 80.6 °F 86.2 °F 75.2 °F 84% 29.85 in 10.0 mi SW 5.8 mph - N/A   Partly Cloudy
3:49 AM 80.6 °F 85.4 °F 73.4 °F 79% 29.85 in 10.0 mi SSW 4.6 mph - N/A Thunderstorm Thunderstorm
3:53 AM 81.0 °F 86.7 °F 75.0 °F 82% 29.84 in 10.0 mi SW 4.6 mph - N/A Thunderstorm Thunderstorm
4:05 AM 80.6 °F 86.2 °F 75.2 °F 84% 29.85 in 10.0 mi SW 3.5 mph - N/A   Clear
4:24 AM 80.6 °F 86.2 °F 75.2 °F 84% 29.85 in 10.0 mi SW 5.8 mph - N/A   Scattered Clouds
4:53 AM 80.1 °F 85.1 °F 75.0 °F 85% 29.85 in 10.0 mi SW 4.6 mph - N/A   Partly Cloudy
5:28 AM 80.6 °F 85.4 °F 73.4 °F 79% 29.85 in 10.0 mi SW 4.6 mph - N/A   Partly Cloudy
5:53 AM 80.1 °F 84.5 °F 73.9 °F 81% 29.85 in 10.0 mi WSW 5.8 mph - N/A   Clear
6:53 AM 81.0 °F 86.2 °F 73.9 °F 79% 29.86 in 8.0 mi WSW 4.6 mph - N/A   Mostly Cloudy
7:53 AM 81.0 °F 86.2 °F 73.9 °F 79% 29.88 in 10.0 mi West 4.6 mph - N/A   Overcast
8:53 AM 82.0 °F 88.6 °F 75.0 °F 79% 29.88 in 10.0 mi WNW 3.5 mph - N/A   Mostly Cloudy
9:53 AM 84.0 °F 91.2 °F 73.9 °F 72% 29.90 in 10.0 mi West 4.6 mph - N/A   Mostly Cloudy
10:53 AM 87.1 °F 96.3 °F 75.0 °F 67% 29.91 in 10.0 mi WNW 5.8 mph - N/A   Mostly Cloudy
11:53 AM 86.0 °F 95.1 °F 75.0 °F 70% 29.91 in 10.0 mi NNW 8.1 mph - N/A   Mostly Cloudy
12:53 PM 86.0 °F 93.0 °F 73.0 °F 65% 29.89 in 10.0 mi NNW 9.2 mph - N/A   Mostly Cloudy
1:53 PM 89.1 °F 99.1 °F 75.0 °F 63% 29.87 in 10.0 mi WNW 8.1 mph - N/A   Mostly Cloudy
2:53 PM 87.1 °F 94.5 °F 73.0 °F 63% 29.86 in 10.0 mi NNW 11.5 mph - N/A   Mostly Cloudy
3:53 PM 86.0 °F 95.1 °F 75.0 °F 70% 29.85 in 10.0 mi NNW 5.8 mph - N/A   Mostly Cloudy
4:53 PM 84.9 °F 92.1 °F 73.9 °F 69% 29.87 in 10.0 mi NNW 6.9 mph - N/A   Mostly Cloudy
5:53 PM 84.0 °F 89.6 °F 72.0 °F 67% 29.88 in 10.0 mi North 8.1 mph - N/A   Mostly Cloudy
6:53 PM 82.0 °F 87.4 °F 73.0 °F 74% 29.88 in 10.0 mi NNW 4.6 mph - N/A   Mostly Cloudy
7:53 PM 82.0 °F 87.4 °F 73.0 °F 74% 29.90 in 10.0 mi North 8.1 mph - N/A   Mostly Cloudy
8:53 PM 81.0 °F 85.8 °F 73.0 °F 77% 29.92 in 10.0 mi North 11.5 mph - N/A   Mostly Cloudy
9:53 PM 82.9 °F 88.0 °F 72.0 °F 69% 29.94 in 10.0 mi North 11.5 mph - N/A   Mostly Cloudy
10:53 PM 82.0 °F 86.7 °F 72.0 °F 71% 29.95 in 10.0 mi NNE 10.4 mph - N/A   Mostly Cloudy
11:26 PM 80.6 °F 82.3 °F 64.4 °F 58% 29.96 in 10.0 mi NNE 9.2 mph - 0.05 in   Overcast
11:53 PM 81.0 °F 86.2 °F 73.9 °F 79% 29.96 in 10.0 mi NNE 11.5 mph - 0.05 in   Overcast